EW7757 Weather Reports


time (UTC)temp
F
wind
direction
speed
knots
gust
knots
rain 1hr
in
rain 24hr
in
rain mn
in
humidity
%
barometer
mb
20221203051511 75 54 0.0 6.1 0.00 0.00 0.00 54 1011.1
20221203050007 77 41 0.0 0.0 0.00 0.00 0.00 53 1011.1
20221203044505 74 41 0.0 2.6 0.00 0.00 0.00 59 1011.1
20221203043047 72 43 0.0 0.0 0.00 0.00 0.00 60 1011.2
20221203041546 74 43 0.0 4.3 0.00 0.00 0.00 57 1011.4
20221203040055 76 42 0.0 3.5 0.00 0.00 0.00 55 1011.5
20221203034542 75 39 0.0 0.0 0.00 0.00 0.00 55 1011.7
20221203033102 73 40 0.0 0.0 0.00 0.00 0.00 57 1012.1
20221203031549 74 41 0.0 1.7 0.00 0.00 0.00 56 1012.2
20221203030049 75 41 0.0 0.0 0.00 0.00 0.00 54 1012.3
20221203024616 74 41 0.0 0.9 0.00 0.00 0.00 59 1012.4
20221203023044 73 41 0.0 0.0 0.00 0.00 0.00 55 1012.7
20221203021542 72 41 0.0 0.0 0.00 0.00 0.00 58 1012.9
20221203020042 71 39 0.0 0.0 0.00 0.00 0.00 60 1013.1
20221203014541 70 39 0.0 0.9 0.00 0.00 0.00 61 1013.3
20221203013040 71 40 0.0 0.0 0.00 0.00 0.00 58 1013.4
20221203011537 71 44 0.0 0.0 0.00 0.00 0.00 60 1013.6
20221203010034 69 45 0.0 0.0 0.00 0.00 0.00 62 1013.8
20221203004530 68 46 0.0 0.9 0.00 0.00 0.00 64 1014.0
20221203003021 67 46 0.0 0.0 0.00 0.00 0.00 64 1014.2
20221203001530 67 46 0.0 0.0 0.00 0.00 0.00 65 1014.4
20221203000018 67 46 0.0 0.0 0.00 0.00 0.00 63 1014.6
20221202234514 66 46 0.0 1.7 0.00 0.00 0.00 67 1014.6
20221202233014 66 46 0.0 0.0 0.00 0.00 0.00 66 1014.8
20221202231512 65 46 0.0 0.0 0.00 0.00 0.00 66 1014.9
20221202230009 63 46 0.0 0.0 0.00 0.00 0.00 68 1014.8
20221202224509 62 46 0.0 0.0 0.00 0.00 0.00 70 1015.1
20221202223014 63 46 0.0 0.0 0.00 0.00 0.00 71 1015.2
20221202221510 62 46 0.0 0.0 0.00 0.00 0.00 72 1015.3
20221202220026 60 45 0.0 0.0 0.00 0.00 0.00 72 1015.5
20221202214505 60 46 0.0 0.0 0.00 0.00 0.00 72 1015.6
20221202213009 60 46 0.0 0.0 0.00 0.00 0.00 76 1015.6
20221202211507 57 46 0.0 0.0 0.00 0.00 0.00 82 1015.6
20221202210008 56 46 0.0 0.0 0.00 0.00 0.00 86 1015.4
20221202204509 54 45 0.0 0.0 0.00 0.00 0.00 91 1015.4
20221202203100 53 180 0.0 0.0 0.00 0.00 0.00 93 1015.2
20221202201601 50 46 0.0 0.0 0.00 0.00 0.00 94 1015.0
20221202200059 49 180 0.0 0.0 0.00 0.00 0.00 94 1014.9
20221202194558 48 180 0.0 0.0 0.00 0.00 0.00 94 1014.8
20221202193053 47 180 0.0 0.0 0.00 0.00 0.00 93 1014.7
20221202191552 47 180 0.0 0.0 0.00 0.00 0.00 93 1014.6
20221202190051 47 180 0.0 0.0 0.00 0.00 0.00 92 1014.6
20221202184605 47 180 0.0 0.0 0.00 0.00 0.00 92 1014.6
20221202183045 48 180 0.0 0.0 0.00 0.00 0.00 92 1014.4
20221202181544 49 180 0.0 0.0 0.00 0.00 0.00 92 1014.1
20221202180042 50 180 0.0 0.0 0.00 0.00 0.00 91 1014.1
20221202174539 50 180 0.0 0.0 0.00 0.00 0.00 91 1014.1
20221202173043 50 180 0.0 0.0 0.00 0.00 0.00 91 1014.0
20221202171538 50 180 0.0 0.0 0.00 0.00 0.00 91 1013.9
20221202170038 51 180 0.0 0.0 0.00 0.00 0.00 90 1013.9
20221202164533 51 180 0.0 0.0 0.00 0.00 0.00 90 1013.9
20221202163040 51 180 0.0 0.0 0.00 0.00 0.00 90 1014.0
20221202161550 51 180 0.0 0.0 0.00 0.00 0.00 90 1014.1
20221202160042 51 180 0.0 0.0 0.00 0.00 0.00 89 1014.1
20221202154538 52 180 0.0 0.0 0.00 0.00 0.00 88 1014.1
20221202153039 52 180 0.0 0.0 0.00 0.00 0.00 88 1014.4
20221202151528 52 180 0.0 0.0 0.00 0.00 0.00 88 1014.6
20221202150027 52 180 0.0 0.0 0.00 0.00 0.00 88 1014.6
20221202144526 52 180 0.0 0.0 0.00 0.00 0.00 88 1014.7
20221202143051 52 180 0.0 0.0 0.00 0.00 0.00 88 1014.8
20221202141533 52 180 0.0 0.0 0.00 0.00 0.00 88 1014.9
20221202140035 52 180 0.0 0.0 0.00 0.00 0.00 88 1015.0
20221202134532 52 180 0.0 0.0 0.00 0.00 0.00 88 1015.1
20221202133039 52 180 0.0 0.0 0.00 0.00 0.00 89 1015.2
20221202131538 52 180 0.0 0.0 0.00 0.00 0.00 90 1015.4
20221202130040 52 180 0.0 0.0 0.00 0.00 0.00 91 1015.5
20221202124542 51 180 0.0 0.0 0.00 0.00 0.00 91 1015.5
20221202123021 51 180 0.0 0.0 0.00 0.00 0.00 91 1015.6
20221202121518 51 180 0.0 0.0 0.00 0.00 0.00 91 1015.5
20221202120016 52 180 0.0 0.0 0.00 0.00 0.00 90 1015.5
20221202114519 52 180 0.0 0.0 0.00 0.00 0.00 89 1015.5
20221202113052 53 180 0.0 0.0 0.00 0.00 0.00 88 1015.5
20221202111603 53 180 0.0 0.0 0.00 0.00 0.00 87 1015.4
20221202110040 54 180 0.0 0.0 0.00 0.00 0.00 86 1015.4
20221202104534 54 180 0.0 0.0 0.00 0.00 0.00 85 1015.4
20221202103058 55 180 0.0 0.0 0.00 0.00 0.00 84 1015.1
20221202101546 56 180 0.0 0.0 0.00 0.00 0.00 84 1014.9
20221202100051 56 180 0.0 0.0 0.00 0.00 0.00 84 1014.9
20221202094540 57 180 0.0 0.0 0.00 0.00 0.00 82 1014.6
20221202093033 57 180 0.0 0.0 0.00 0.00 0.00 82 1014.6
20221202091531 57 180 0.0 0.0 0.00 0.00 0.00 81 1014.5
20221202090033 58 180 0.0 0.0 0.00 0.00 0.00 80 1014.3
20221202084530 58 180 0.0 0.0 0.00 0.00 0.00 79 1014.3
20221202083010 59 180 0.0 0.0 0.00 0.00 0.00 77 1014.0
20221202081513 59 180 0.0 7.0 0.00 0.00 0.00 75 1013.8
20221202080010 60 180 0.0 2.6 0.00 0.00 0.00 74 1013.6
20221202074508 61 180 0.0 0.0 0.00 0.00 0.00 72 1013.4
20221202073021 61 180 0.0 4.3 0.00 0.00 0.00 71 1013.1
20221202071530 62 180 0.0 3.5 0.00 0.00 0.00 70 1012.9
20221202070020 62 180 0.0 4.3 0.00 0.00 0.00 69 1012.7
20221202064519 64 180 0.0 1.7 0.00 0.00 0.00 66 1012.4
20221202063033 65 39 0.0 4.3 0.00 0.00 0.00 63 1012.2
20221202061523 64 52 0.0 3.5 0.00 0.00 0.00 66 1012.2
20221202060025 65 51 0.0 6.1 0.00 0.00 0.00 64 1012.2
20221202054523 66 58 0.0 0.0 0.00 0.00 0.00 61 1012.0
20221202053012 67 61 0.0 6.1 0.00 0.00 0.00 61 1012.2